GFSGBSN_prec_precacc24_159.txt.gz
Total_Precipitation_Accumulation
0.24 0.11 0.04 0.05 0.06 0.09 0.12 0.12 0.10 0.09 0.07 0.05 0.04 0.03 0.02 0.01 0.00 0.00 0.00 0.00 0.00 0.00 0.00 0.00 0.00 0.00 0.00 0.00 0.00 0.00 0.00 0.00 0.00 0.00 0.00 0.00 0.00 0.00 0.00 0.00 0.00 0.00 0.00 0.00 0.00 0.00 0.00
0.99 0.74 0.43 0.25 0.14 0.10 0.10 0.09 0.10 0.10 0.11 0.11 0.12 0.10 0.08 0.05 0.04 0.02 0.00 0.00 0.00 0.00 0.00 0.00 0.00 0.00 0.00 0.00 0.00 0.00 0.00 0.00 0.00 0.00 0.00 0.00 0.00 0.00 0.00 0.00 0.00 0.00 0.00 0.00 0.00 0.00 0.00
0.28 0.43 0.56 0.52 0.35 0.29 0.21 0.13 0.10 0.07 0.06 0.11 0.15 0.14 0.16 0.14 0.10 0.08 0.03 0.00 0.00 0.00 0.00 0.00 0.00 0.00 0.00 0.00 0.00 0.00 0.00 0.00 0.00 0.00 0.00 0.00 0.00 0.00 0.00 0.00 0.00 0.00 0.00 0.00 0.00 0.00 0.00
0.10 0.09 0.11 0.15 0.19 0.13 0.11 0.11 0.10 0.07 0.04 0.02 0.05 0.07 0.07 0.07 0.07 0.06 0.03 0.00 0.00 0.00 0.00 0.00 0.00 0.00 0.00 0.00 0.00 0.00 0.00 0.00 0.00 0.00 0.00 0.00 0.00 0.00 0.00 0.00 0.00 0.00 0.00 0.00 0.00 0.00 0.00
0.12 0.12 0.11 0.07 0.04 0.05 0.05 0.03 0.02 0.02 0.03 0.02 0.02 0.07 0.08 0.10 0.14 0.14 0.09 0.02 0.00 0.00 0.00 0.00 0.00 0.00 0.00 0.00 0.00 0.00 0.00 0.00 0.00 0.00 0.00 0.00 0.00 0.00 0.00 0.00 0.00 0.00 0.00 0.00 0.00 0.00 0.00
0.03 0.04 0.07 0.07 0.03 0.01 0.02 0.02 0.01 0.00 0.01 0.02 0.02 0.03 0.06 0.09 0.13 0.15 0.10 0.07 0.02 0.00 0.00 0.00 0.00 0.00 0.00 0.00 0.00 0.00 0.00 0.00 0.00 0.00 0.00 0.00 0.00 0.00 0.00 0.00 0.00 0.00 0.00 0.00 0.00 0.00 0.00
0.01 0.00 0.00 0.00 0.00 0.00 0.00 0.01 0.01 0.01 0.00 0.01 0.02 0.02 0.03 0.08 0.14 0.12 0.08 0.06 0.06 0.08 0.03 0.00 0.00 0.00 0.00 0.00 0.00 0.00 0.00 0.00 0.00 0.00 0.00 0.00 0.00 0.00 0.00 0.00 0.00 0.00 0.00 0.00 0.00 0.00 0.00
0.02 0.01 0.01 0.01 0.01 0.00 0.00 0.00 0.00 0.01 0.01 0.00 0.01 0.02 0.03 0.04 0.09 0.08 0.03 0.04 0.02 0.03 0.05 0.03 0.01 0.00 0.00 0.00 0.00 0.00 0.00 0.00 0.00 0.00 0.00 0.00 0.00 0.00 0.00 0.00 0.00 0.00 0.00 0.00 0.00 0.00 0.00
0.03 0.03 0.02 0.02 0.02 0.01 0.01 0.01 0.00 0.00 0.01 0.01 0.01 0.02 0.04 0.06 0.07 0.04 0.00 0.01 0.01 0.01 0.04 0.01 0.00 0.00 0.00 0.00 0.00 0.00 0.00 0.00 0.00 0.00 0.00 0.00 0.00 0.00 0.00 0.00 0.00 0.00 0.00 0.00 0.00 0.00 0.00
0.03 0.02 0.02 0.02 0.02 0.01 0.01 0.01 0.01 0.01 0.02 0.02 0.02 0.04 0.08 0.10 0.04 0.00 0.00 0.00 0.01 0.02 0.10 0.03 0.00 0.00 0.00 0.00 0.00 0.00 0.00 0.00 0.00 0.00 0.00 0.00 0.00 0.00 0.00 0.00 0.00 0.00 0.00 0.00 0.00 0.00 0.00
0.02 0.02 0.02 0.01 0.01 0.01 0.01 0.01 0.01 0.00 0.01 0.03 0.04 0.06 0.09 0.02 0.00 0.00 0.00 0.00 0.00 0.04 0.26 0.04 0.00 0.00 0.00 0.00 0.00 0.00 0.00 0.00 0.00 0.00 0.00 0.00 0.00 0.00 0.00 0.00 0.00 0.00 0.00 0.00 0.00 0.00 0.00
0.03 0.01 0.01 0.01 0.01 0.01 0.00 0.00 0.01 0.01 0.01 0.03 0.06 0.07 0.05 0.02 0.00 0.00 0.00 0.00 0.02 0.14 0.16 0.00 0.00 0.00 0.00 0.00 0.00 0.00 0.00 0.00 0.00 0.00 0.00 0.00 0.00 0.00 0.00 0.00 0.00 0.00 0.00 0.00 0.00 0.00 0.00
0.08 0.04 0.02 0.02 0.01 0.01 0.01 0.01 0.01 0.01 0.01 0.02 0.07 0.07 0.05 0.01 0.00 0.00 0.00 0.02 0.14 0.22 0.02 0.00 0.00 0.00 0.00 0.00 0.00 0.00 0.00 0.00 0.00 0.00 0.00 0.00 0.00 0.00 0.00 0.00 0.00 0.00 0.00 0.00 0.00 0.00 0.00
0.20 0.13 0.04 0.02 0.02 0.01 0.01 0.00 0.00 0.01 0.01 0.03 0.07 0.10 0.10 0.02 0.00 0.00 0.01 0.10 0.22 0.04 0.00 0.00 0.00 0.00 0.00 0.00 0.00 0.00 0.00 0.00 0.00 0.00 0.00 0.00 0.00 0.00 0.00 0.00 0.00 0.00 0.00 0.00 0.00 0.00 0.00
0.31 0.24 0.13 0.04 0.01 0.00 0.00 0.00 0.00 0.01 0.03 0.10 0.17 0.16 0.14 0.06 0.01 0.01 0.06 0.23 0.12 0.01 0.00 0.00 0.00 0.00 0.00 0.00 0.00 0.00 0.00 0.00 0.00 0.00 0.00 0.00 0.00 0.00 0.00 0.00 0.00 0.00 0.00 0.00 0.00 0.00 0.00
0.33 0.37 0.34 0.19 0.05 0.01 0.01 0.01 0.01 0.04 0.11 0.16 0.13 0.18 0.17 0.04 0.03 0.06 0.19 0.15 0.02 0.00 0.00 0.01 0.01 0.00 0.00 0.00 0.00 0.00 0.00 0.00 0.00 0.00 0.00 0.00 0.00 0.00 0.00 0.00 0.00 0.00 0.00 0.00 0.02 0.04 0.02
0.20 0.31 0.42 0.40 0.21 0.05 0.02 0.04 0.03 0.12 0.15 0.19 0.16 0.23 0.17 0.08 0.15 0.32 0.28 0.07 0.01 0.00 0.00 0.02 0.03 0.02 0.00 0.00 0.00 0.00 0.00 0.00 0.00 0.00 0.00 0.00 0.00 0.00 0.00 0.00 0.00 0.00 0.00 0.00 0.00 0.02 0.03
0.13 0.19 0.32 0.46 0.34 0.19 0.18 0.15 0.13 0.23 0.32 0.34 0.15 0.11 0.22 0.16 0.44 0.42 0.16 0.01 0.00 0.00 0.00 0.01 0.02 0.04 0.02 0.00 0.00 0.00 0.00 0.00 0.00 0.00 0.00 0.00 0.02 0.01 0.00 0.00 0.00 0.00 0.00 0.00 0.05 0.06 0.09
0.16 0.18 0.30 0.42 0.33 0.20 0.34 0.98 1.08 0.82 0.76 0.43 0.34 0.29 0.53 0.16 0.16 0.16 0.03 0.02 0.01 0.00 0.00 0.01 0.01 0.00 0.03 0.03 0.02 0.00 0.00 0.00 0.00 0.00 0.00 0.00 0.05 0.03 0.01 0.00 0.00 0.00 0.00 0.00 0.00 0.05 0.09
0.29 0.20 0.26 0.41 0.42 0.17 0.20 0.56 0.97 0.89 0.83 0.48 0.35 0.65 1.30 0.99 0.21 0.02 0.03 0.04 0.01 0.00 0.00 0.00 0.00 0.02 0.01 0.02 0.01 0.01 0.00 0.00 0.00 0.00 0.01 0.02 0.02 0.01 0.01 0.00 0.02 0.02 0.01 0.01 0.04 0.23 0.20
0.40 0.31 0.23 0.33 0.46 0.27 0.15 0.26 0.60 0.47 0.58 0.67 0.51 0.38 0.38 0.71 0.57 0.11 0.02 0.03 0.01 0.00 0.00 0.01 0.01 0.01 0.01 0.01 0.01 0.01 0.00 0.00 0.00 0.00 0.00 0.02 0.03 0.01 0.00 0.00 0.01 0.00 0.00 0.01 0.06 0.06 0.17
0.44 0.45 0.33 0.24 0.38 0.31 0.24 0.16 0.45 0.63 0.65 0.73 0.56 0.32 0.19 0.11 0.16 0.19 0.10 0.04 0.01 0.00 0.00 0.00 0.00 0.00 0.00 0.01 0.00 0.00 0.01 0.03 0.03 0.02 0.02 0.04 0.03 0.03 0.02 0.00 0.01 0.01 0.00 0.00 0.01 0.01 0.06
0.52 0.45 0.52 0.33 0.25 0.28 0.22 0.20 0.24 0.46 0.56 0.75 0.39 0.12 0.11 0.19 0.24 0.35 0.18 0.04 0.01 0.01 0.05 0.00 0.00 0.01 0.02 0.00 0.02 0.04 0.05 0.04 0.03 0.02 0.02 0.04 0.07 0.18 0.13 0.04 0.19 0.18 0.00 0.00 0.00 0.00 0.00
0.38 0.53 0.50 0.50 0.26 0.22 0.14 0.16 0.20 0.21 0.28 0.45 0.47 0.22 0.18 0.20 0.13 0.13 0.05 0.02 0.02 0.02 0.02 0.00 0.00 0.03 0.01 0.03 0.05 0.04 0.03 0.02 0.02 0.01 0.02 0.05 0.11 0.25 0.18 0.14 0.29 0.04 0.00 0.00 0.00 0.00 0.00
0.32 0.40 0.52 0.45 0.35 0.18 0.07 0.10 0.20 0.13 0.13 0.20 0.25 0.34 0.21 0.14 0.08 0.09 0.06 0.03 0.04 0.03 0.03 0.01 0.00 0.00 0.03 0.15 0.19 0.22 0.15 0.08 0.02 0.01 0.01 0.02 0.09 0.21 0.21 0.20 0.06 0.00 0.00 0.00 0.00 0.01 0.00
0.32 0.33 0.45 0.39 0.38 0.18 0.05 0.07 0.16 0.12 0.11 0.14 0.13 0.15 0.29 0.30 0.16 0.04 0.04 0.04 0.05 0.04 0.07 0.03 0.00 0.01 0.10 0.27 0.19 0.23 0.16 0.08 0.02 0.01 0.01 0.03 0.07 0.16 0.15 0.18 0.13 0.03 0.00 0.00 0.00 0.02 0.00
0.37 0.31 0.33 0.36 0.29 0.13 0.04 0.05 0.07 0.13 0.17 0.14 0.12 0.12 0.27 0.31 0.08 0.05 0.07 0.07 0.03 0.05 0.08 0.02 0.02 0.04 0.08 0.29 0.26 0.08 0.05 0.03 0.06 0.05 0.06 0.13 0.18 0.19 0.14 0.26 0.08 0.00 0.00 0.00 0.01 0.05 0.00
0.41 0.31 0.31 0.24 0.21 0.06 0.03 0.04 0.05 0.11 0.22 0.18 0.21 0.25 0.27 0.23 0.08 0.05 0.03 0.04 0.04 0.05 0.05 0.06 0.13 0.08 0.08 0.15 0.14 0.11 0.06 0.04 0.03 0.04 0.05 0.06 0.15 0.14 0.20 0.24 0.10 0.01 0.00 0.00 0.02 0.00 0.00
0.46 0.30 0.27 0.16 0.14 0.04 0.03 0.03 0.07 0.12 0.20 0.26 0.47 0.32 0.36 0.35 0.15 0.03 0.03 0.01 0.01 0.03 0.09 0.12 0.08 0.09 0.05 0.05 0.05 0.09 0.11 0.08 0.06 0.05 0.02 0.05 0.04 0.06 0.06 0.08 0.04 0.00 0.00 0.00 0.00 0.00 0.00

GFSGBSN_prec_precacc24_165.txt.gz
Total_Precipitation_Accumulation
0.25 0.11 0.04 0.04 0.03 0.05 0.09 0.10 0.08 0.05 0.03 0.02 0.01 0.01 0.01 0.00 0.00 0.00 0.00 0.00 0.00 0.00 0.00 0.00 0.00 0.00 0.00 0.00 0.00 0.00 0.00 0.00 0.00 0.00 0.00 0.00 0.00 0.00 0.00 0.00 0.00 0.00 0.00 0.00 0.00 0.00 0.00
1.26 1.04 0.60 0.30 0.15 0.09 0.07 0.07 0.08 0.09 0.09 0.07 0.05 0.03 0.02 0.02 0.02 0.02 0.00 0.00 0.00 0.00 0.00 0.00 0.00 0.00 0.00 0.00 0.00 0.00 0.00 0.00 0.00 0.00 0.00 0.00 0.00 0.00 0.00 0.00 0.00 0.00 0.00 0.00 0.00 0.00 0.00
0.36 0.59 0.88 0.90 0.71 0.54 0.35 0.16 0.11 0.10 0.09 0.09 0.07 0.04 0.03 0.02 0.02 0.02 0.01 0.00 0.00 0.00 0.00 0.00 0.00 0.00 0.00 0.00 0.00 0.00 0.00 0.00 0.00 0.00 0.00 0.00 0.00 0.00 0.00 0.00 0.00 0.00 0.00 0.00 0.00 0.00 0.00
0.21 0.27 0.28 0.35 0.58 0.60 0.59 0.57 0.46 0.31 0.21 0.25 0.23 0.14 0.07 0.03 0.04 0.03 0.02 0.00 0.00 0.00 0.00 0.00 0.00 0.00 0.00 0.00 0.00 0.00 0.00 0.00 0.00 0.00 0.00 0.00 0.00 0.00 0.00 0.00 0.00 0.00 0.00 0.00 0.00 0.00 0.00
0.19 0.28 0.35 0.38 0.42 0.43 0.44 0.46 0.41 0.34 0.34 0.30 0.22 0.12 0.05 0.02 0.07 0.10 0.06 0.02 0.00 0.00 0.00 0.00 0.00 0.00 0.00 0.00 0.00 0.00 0.00 0.00 0.00 0.00 0.00 0.00 0.00 0.00 0.00 0.00 0.00 0.00 0.00 0.00 0.00 0.00 0.00
0.07 0.08 0.13 0.18 0.18 0.14 0.10 0.07 0.05 0.06 0.07 0.09 0.09 0.05 0.03 0.01 0.04 0.08 0.04 0.02 0.01 0.00 0.00 0.00 0.00 0.00 0.00 0.00 0.00 0.00 0.00 0.00 0.00 0.00 0.00 0.00 0.00 0.00 0.00 0.00 0.00 0.00 0.00 0.00 0.00 0.00 0.00
0.01 0.01 0.01 0.02 0.02 0.03 0.03 0.03 0.03 0.02 0.02 0.01 0.01 0.00 0.00 0.01 0.03 0.04 0.02 0.01 0.00 0.00 0.00 0.00 0.00 0.00 0.00 0.00 0.00 0.00 0.00 0.00 0.00 0.00 0.00 0.00 0.00 0.00 0.00 0.00 0.00 0.00 0.00 0.00 0.00 0.00 0.00
0.04 0.03 0.01 0.01 0.01 0.01 0.01 0.02 0.02 0.02 0.02 0.01 0.01 0.01 0.00 0.01 0.03 0.02 0.01 0.00 0.00 0.00 0.01 0.02 0.01 0.00 0.00 0.00 0.00 0.00 0.00 0.00 0.00 0.00 0.00 0.00 0.00 0.00 0.00 0.00 0.00 0.00 0.00 0.00 0.00 0.00 0.00
0.05 0.06 0.05 0.04 0.03 0.01 0.01 0.01 0.02 0.01 0.02 0.01 0.00 0.00 0.01 0.02 0.01 0.01 0.00 0.00 0.00 0.00 0.00 0.00 0.00 0.00 0.00 0.00 0.00 0.00 0.00 0.00 0.00 0.00 0.00 0.00 0.00 0.00 0.00 0.00 0.00 0.00 0.00 0.00 0.00 0.00 0.00
0.03 0.03 0.03 0.03 0.04 0.04 0.03 0.02 0.02 0.02 0.02 0.02 0.01 0.00 0.02 0.01 0.00 0.00 0.00 0.00 0.00 0.00 0.00 0.00 0.00 0.00 0.00 0.00 0.00 0.00 0.00 0.00 0.00 0.00 0.00 0.00 0.00 0.00 0.00 0.00 0.00 0.00 0.00 0.00 0.00 0.00 0.00
0.02 0.02 0.02 0.02 0.02 0.02 0.02 0.03 0.02 0.02 0.02 0.04 0.02 0.01 0.01 0.00 0.00 0.00 0.00 0.00 0.00 0.00 0.01 0.00 0.00 0.00 0.00 0.00 0.00 0.00 0.00 0.00 0.00 0.00 0.00 0.00 0.00 0.00 0.00 0.00 0.00 0.00 0.00 0.00 0.00 0.00 0.00
0.04 0.02 0.01 0.01 0.01 0.01 0.01 0.00 0.01 0.01 0.01 0.03 0.05 0.03 0.01 0.01 0.00 0.00 0.00 0.00 0.00 0.02 0.02 0.00 0.00 0.00 0.00 0.00 0.00 0.00 0.00 0.00 0.00 0.00 0.00 0.00 0.00 0.00 0.00 0.00 0.00 0.00 0.00 0.00 0.00 0.00 0.00
0.08 0.05 0.03 0.02 0.01 0.01 0.01 0.00 0.01 0.01 0.01 0.02 0.05 0.05 0.02 0.00 0.00 0.00 0.00 0.00 0.02 0.03 0.00 0.00 0.00 0.00 0.00 0.00 0.00 0.00 0.00 0.00 0.00 0.00 0.00 0.00 0.00 0.00 0.00 0.00 0.00 0.00 0.00 0.00 0.00 0.00 0.00
0.20 0.15 0.09 0.05 0.02 0.01 0.00 0.00 0.00 0.01 0.01 0.02 0.04 0.06 0.05 0.01 0.00 0.00 0.00 0.02 0.03 0.00 0.00 0.00 0.00 0.00 0.00 0.00 0.00 0.00 0.00 0.00 0.00 0.00 0.00 0.00 0.00 0.00 0.00 0.00 0.00 0.00 0.00 0.00 0.00 0.00 0.00
0.31 0.25 0.19 0.14 0.08 0.04 0.01 0.00 0.01 0.01 0.01 0.03 0.06 0.09 0.08 0.04 0.01 0.01 0.02 0.05 0.02 0.00 0.00 0.00 0.00 0.00 0.00 0.00 0.00 0.00 0.00 0.00 0.00 0.00 0.00 0.00 0.00 0.00 0.00 0.00 0.00 0.00 0.00 0.00 0.00 0.00 0.00
0.34 0.36 0.36 0.30 0.18 0.11 0.08 0.04 0.01 0.02 0.01 0.05 0.07 0.08 0.03 0.03 0.03 0.04 0.09 0.04 0.00 0.00 0.00 0.00 0.00 0.00 0.00 0.00 0.00 0.00 0.00 0.00 0.00 0.00 0.00 0.00 0.00 0.00 0.00 0.00 0.00 0.00 0.00 0.00 0.01 0.04 0.02
0.20 0.31 0.41 0.45 0.37 0.27 0.17 0.11 0.06 0.03 0.02 0.08 0.09 0.07 0.02 0.04 0.13 0.19 0.13 0.03 0.00 0.00 0.00 0.00 0.00 0.01 0.00 0.00 0.00 0.00 0.00 0.00 0.00 0.00 0.00 0.00 0.00 0.00 0.00 0.00 0.00 0.00 0.00 0.00 0.00 0.02 0.03
0.13 0.20 0.31 0.46 0.42 0.33 0.27 0.23 0.17 0.12 0.10 0.20 0.13 0.05 0.05 0.08 0.20 0.19 0.06 0.00 0.00 0.00 0.00 0.00 0.01 0.03 0.02 0.00 0.00 0.00 0.00 0.00 0.00 0.00 0.00 0.00 0.02 0.01 0.00 0.00 0.00 0.00 0.00 0.00 0.05 0.06 0.05
0.16 0.18 0.30 0.41 0.39 0.28 0.22 0.21 0.26 0.25 0.30 0.16 0.14 0.08 0.28 0.14 0.05 0.05 0.01 0.00 0.00 0.00 0.00 0.00 0.01 0.00 0.03 0.03 0.02 0.00 0.00 0.00 0.00 0.00 0.00 0.00 0.05 0.03 0.01 0.00 0.00 0.00 0.00 0.00 0.00 0.04 0.08
0.29 0.20 0.26 0.40 0.45 0.30 0.22 0.19 0.21 0.25 0.38 0.33 0.22 0.23 0.68 0.61 0.06 0.00 0.01 0.01 0.00 0.00 0.00 0.00 0.00 0.01 0.01 0.02 0.01 0.00 0.00 0.00 0.00 0.00 0.01 0.02 0.02 0.01 0.01 0.00 0.02 0.02 0.00 0.01 0.04 0.24 0.18
0.40 0.31 0.23 0.33 0.46 0.41 0.30 0.24 0.21 0.17 0.29 0.47 0.49 0.34 0.20 0.47 0.38 0.07 0.00 0.00 0.00 0.00 0.00 0.00 0.01 0.01 0.00 0.00 0.00 0.00 0.00 0.00 0.00 0.00 0.00 0.02 0.03 0.01 0.00 0.00 0.01 0.00 0.00 0.01 0.06 0.06 0.16
0.44 0.45 0.33 0.24 0.39 0.43 0.38 0.29 0.29 0.27 0.36 0.61 0.50 0.31 0.18 0.09 0.13 0.17 0.08 0.02 0.00 0.00 0.00 0.00 0.00 0.00 0.00 0.01 0.00 0.00 0.01 0.03 0.03 0.02 0.02 0.04 0.03 0.03 0.02 0.00 0.01 0.01 0.00 0.00 0.01 0.01 0.06
0.52 0.45 0.52 0.32 0.26 0.34 0.39 0.35 0.34 0.33 0.47 0.52 0.31 0.11 0.11 0.18 0.23 0.33 0.16 0.03 0.00 0.02 0.06 0.00 0.00 0.01 0.01 0.00 0.02 0.04 0.05 0.04 0.03 0.02 0.02 0.04 0.07 0.19 0.13 0.03 0.20 0.18 0.00 0.00 0.00 0.00 0.00
0.38 0.54 0.50 0.50 0.26 0.23 0.28 0.36 0.33 0.40 0.40 0.21 0.13 0.14 0.17 0.17 0.10 0.10 0.04 0.02 0.02 0.02 0.02 0.00 0.00 0.03 0.01 0.03 0.05 0.04 0.03 0.02 0.02 0.01 0.02 0.05 0.12 0.27 0.16 0.16 0.31 0.04 0.00 0.00 0.00 0.00 0.01
0.33 0.41 0.52 0.46 0.36 0.19 0.21 0.28 0.31 0.31 0.21 0.15 0.13 0.23 0.16 0.09 0.03 0.04 0.02 0.01 0.02 0.03 0.03 0.01 0.00 0.00 0.03 0.15 0.19 0.22 0.15 0.08 0.02 0.01 0.01 0.02 0.10 0.26 0.22 0.21 0.06 0.00 0.00 0.01 0.04 0.03 0.03
0.34 0.36 0.48 0.39 0.38 0.22 0.16 0.21 0.24 0.28 0.26 0.19 0.16 0.15 0.26 0.29 0.07 0.01 0.03 0.02 0.04 0.04 0.06 0.03 0.00 0.01 0.10 0.28 0.20 0.24 0.17 0.09 0.02 0.01 0.01 0.04 0.08 0.22 0.19 0.21 0.10 0.01 0.01 0.01 0.01 0.04 0.01
0.44 0.37 0.37 0.38 0.32 0.25 0.15 0.14 0.17 0.29 0.32 0.24 0.18 0.13 0.26 0.34 0.06 0.04 0.05 0.04 0.03 0.05 0.05 0.02 0.03 0.06 0.09 0.31 0.28 0.09 0.06 0.03 0.07 0.06 0.07 0.14 0.19 0.23 0.16 0.29 0.07 0.00 0.01 0.02 0.07 0.12 0.02
0.54 0.43 0.37 0.27 0.28 0.23 0.16 0.13 0.15 0.24 0.39 0.31 0.22 0.16 0.26 0.23 0.07 0.05 0.04 0.04 0.05 0.05 0.05 0.09 0.20 0.13 0.10 0.18 0.17 0.11 0.05 0.05 0.04 0.06 0.10 0.10 0.20 0.16 0.23 0.27 0.12 0.01 0.03 0.08 0.11 0.08 0.00
0.51 0.42 0.41 0.26 0.25 0.22 0.18 0.15 0.18 0.26 0.34 0.44 0.54 0.29 0.39 0.40 0.13 0.02 0.01 0.01 0.01 0.03 0.11 0.16 0.15 0.12 0.07 0.06 0.07 0.13 0.14 0.14 0.12 0.10 0.06 0.10 0.05 0.08 0.09 0.12 0.11 0.08 0.04 0.02 0.01 0.00 0.00

GFSGBSN_prec_precacc24_168.txt.gz
Total_Precipitation_Accumulation
0.25 0.11 0.04 0.04 0.03 0.05 0.08 0.09 0.07 0.05 0.02 0.01 0.01 0.01 0.00 0.00 0.00 0.00 0.00 0.00 0.00 0.00 0.00 0.00 0.00 0.00 0.00 0.00 0.00 0.00 0.00 0.00 0.00 0.00 0.00 0.00 0.00 0.00 0.00 0.00 0.00 0.00 0.00 0.00 0.00 0.00 0.00
1.26 1.04 0.60 0.31 0.16 0.10 0.07 0.07 0.08 0.08 0.09 0.07 0.05 0.03 0.02 0.01 0.00 0.00 0.00 0.00 0.00 0.00 0.00 0.00 0.00 0.00 0.00 0.00 0.00 0.00 0.00 0.00 0.00 0.00 0.00 0.00 0.00 0.00 0.00 0.00 0.00 0.00 0.00 0.00 0.00 0.00 0.00
0.36 0.59 0.88 0.90 0.72 0.57 0.40 0.21 0.12 0.11 0.10 0.09 0.07 0.04 0.04 0.04 0.03 0.02 0.01 0.00 0.00 0.00 0.00 0.00 0.00 0.00 0.00 0.00 0.00 0.00 0.00 0.00 0.00 0.00 0.00 0.00 0.00 0.00 0.00 0.00 0.00 0.00 0.00 0.00 0.00 0.00 0.00
0.21 0.27 0.29 0.36 0.62 0.71 0.74 0.67 0.52 0.36 0.26 0.28 0.30 0.28 0.24 0.20 0.11 0.05 0.02 0.00 0.00 0.00 0.00 0.00 0.00 0.00 0.00 0.00 0.00 0.00 0.00 0.00 0.00 0.00 0.00 0.00 0.00 0.00 0.00 0.00 0.00 0.00 0.00 0.00 0.00 0.00 0.00
0.19 0.28 0.35 0.38 0.43 0.46 0.47 0.47 0.42 0.35 0.35 0.31 0.23 0.17 0.14 0.08 0.07 0.08 0.05 0.01 0.00 0.00 0.00 0.00 0.00 0.00 0.00 0.00 0.00 0.00 0.00 0.00 0.00 0.00 0.00 0.00 0.00 0.00 0.00 0.00 0.00 0.00 0.00 0.00 0.00 0.00 0.00
0.06 0.08 0.13 0.18 0.19 0.15 0.11 0.07 0.05 0.07 0.08 0.09 0.10 0.06 0.03 0.01 0.02 0.05 0.03 0.02 0.01 0.00 0.00 0.00 0.00 0.00 0.00 0.00 0.00 0.00 0.00 0.00 0.00 0.00 0.00 0.00 0.00 0.00 0.00 0.00 0.00 0.00 0.00 0.00 0.00 0.00 0.00
0.01 0.01 0.02 0.02 0.03 0.03 0.03 0.04 0.04 0.04 0.03 0.02 0.02 0.01 0.00 0.00 0.01 0.02 0.01 0.01 0.00 0.00 0.00 0.00 0.00 0.00 0.00 0.00 0.00 0.00 0.00 0.00 0.00 0.00 0.00 0.00 0.00 0.00 0.00 0.00 0.00 0.00 0.00 0.00 0.00 0.00 0.00
0.05 0.03 0.01 0.01 0.01 0.01 0.01 0.02 0.02 0.02 0.03 0.02 0.01 0.01 0.01 0.01 0.02 0.01 0.00 0.00 0.00 0.00 0.00 0.00 0.00 0.00 0.00 0.00 0.00 0.00 0.00 0.00 0.00 0.00 0.00 0.00 0.00 0.00 0.00 0.00 0.00 0.00 0.00 0.00 0.00 0.00 0.00
0.05 0.05 0.05 0.04 0.03 0.01 0.01 0.02 0.03 0.02 0.03 0.02 0.01 0.01 0.01 0.01 0.01 0.00 0.00 0.00 0.00 0.00 0.00 0.00 0.00 0.00 0.00 0.00 0.00 0.00 0.00 0.00 0.00 0.00 0.00 0.00 0.00 0.00 0.00 0.00 0.00 0.00 0.00 0.00 0.00 0.00 0.00
0.03 0.02 0.03 0.03 0.04 0.04 0.03 0.02 0.02 0.01 0.01 0.02 0.01 0.00 0.01 0.01 0.00 0.00 0.00 0.00 0.00 0.00 0.00 0.00 0.00 0.00 0.00 0.00 0.00 0.00 0.00 0.00 0.00 0.00 0.00 0.00 0.00 0.00 0.00 0.00 0.00 0.00 0.00 0.00 0.00 0.00 0.00
0.02 0.01 0.02 0.02 0.02 0.02 0.02 0.02 0.02 0.02 0.01 0.03 0.02 0.01 0.00 0.00 0.00 0.00 0.00 0.00 0.00 0.00 0.00 0.00 0.00 0.00 0.00 0.00 0.00 0.00 0.00 0.00 0.00 0.00 0.00 0.00 0.00 0.00 0.00 0.00 0.00 0.00 0.00 0.00 0.00 0.00 0.00
0.04 0.02 0.01 0.01 0.01 0.01 0.01 0.00 0.01 0.01 0.01 0.02 0.03 0.02 0.00 0.00 0.00 0.00 0.00 0.00 0.00 0.00 0.00 0.00 0.00 0.00 0.00 0.00 0.00 0.00 0.00 0.00 0.00 0.00 0.00 0.00 0.00 0.00 0.00 0.00 0.00 0.00 0.00 0.00 0.00 0.00 0.00
0.08 0.05 0.03 0.02 0.01 0.01 0.01 0.00 0.00 0.01 0.00 0.01 0.04 0.04 0.01 0.00 0.00 0.00 0.00 0.00 0.02 0.01 0.00 0.00 0.00 0.00 0.00 0.00 0.00 0.00 0.00 0.00 0.00 0.00 0.00 0.00 0.00 0.00 0.00 0.00 0.00 0.00 0.00 0.00 0.00 0.00 0.00
0.19 0.15 0.09 0.05 0.02 0.01 0.00 0.00 0.00 0.00 0.00 0.01 0.04 0.06 0.03 0.01 0.00 0.00 0.00 0.01 0.01 0.00 0.00 0.00 0.00 0.00 0.00 0.00 0.00 0.00 0.00 0.00 0.00 0.00 0.00 0.00 0.00 0.00 0.00 0.00 0.00 0.00 0.00 0.00 0.00 0.00 0.00
0.31 0.24 0.19 0.14 0.08 0.05 0.02 0.00 0.00 0.01 0.01 0.03 0.06 0.07 0.07 0.03 0.00 0.00 0.01 0.01 0.01 0.00 0.00 0.00 0.00 0.00 0.00 0.00 0.00 0.00 0.00 0.00 0.00 0.00 0.00 0.00 0.00 0.00 0.00 0.00 0.00 0.00 0.00 0.00 0.00 0.00 0.00
0.33 0.36 0.36 0.30 0.18 0.11 0.09 0.06 0.02 0.01 0.01 0.04 0.05 0.07 0.03 0.03 0.01 0.02 0.03 0.01 0.00 0.00 0.00 0.00 0.00 0.00 0.00 0.00 0.00 0.00 0.00 0.00 0.00 0.00 0.00 0.00 0.00 0.00 0.00 0.00 0.00 0.00 0.00 0.00 0.01 0.04 0.02
0.20 0.31 0.41 0.45 0.37 0.27 0.17 0.12 0.09 0.07 0.05 0.08 0.08 0.05 0.02 0.03 0.09 0.10 0.05 0.00 0.00 0.00 0.00 0.00 0.00 0.00 0.00 0.00 0.00 0.00 0.00 0.00 0.00 0.00 0.00 0.00 0.00 0.00 0.00 0.00 0.00 0.00 0.00 0.00 0.00 0.02 0.03
0.13 0.19 0.31 0.46 0.42 0.33 0.27 0.23 0.19 0.15 0.18 0.33 0.14 0.04 0.06 0.06 0.11 0.07 0.01 0.00 0.00 0.00 0.00 0.00 0.00 0.00 0.00 0.00 0.00 0.00 0.00 0.00 0.00 0.00 0.00 0.00 0.01 0.01 0.00 0.00 0.00 0.00 0.00 0.00 0.05 0.06 0.05
0.15 0.17 0.30 0.41 0.39 0.27 0.22 0.21 0.26 0.29 0.33 0.31 0.22 0.07 0.23 0.18 0.03 0.01 0.00 0.00 0.00 0.00 0.00 0.00 0.00 0.00 0.00 0.01 0.01 0.00 0.00 0.00 0.00 0.00 0.00 0.00 0.04 0.02 0.01 0.00 0.00 0.00 0.00 0.00 0.00 0.04 0.08
0.28 0.19 0.26 0.40 0.45 0.30 0.22 0.18 0.20 0.27 0.44 0.48 0.40 0.25 0.41 0.52 0.05 0.00 0.00 0.00 0.00 0.00 0.00 0.00 0.00 0.00 0.01 0.01 0.01 0.00 0.00 0.00 0.00 0.00 0.01 0.02 0.02 0.01 0.01 0.00 0.02 0.02 0.00 0.01 0.04 0.24 0.18
0.39 0.31 0.23 0.33 0.46 0.41 0.29 0.24 0.20 0.20 0.34 0.47 0.48 0.32 0.13 0.33 0.26 0.03 0.00 0.00 0.00 0.00 0.00 0.00 0.00 0.00 0.00 0.00 0.00 0.00 0.00 0.00 0.00 0.00 0.00 0.01 0.02 0.01 0.00 0.00 0.01 0.00 0.00 0.01 0.06 0.06 0.16
0.43 0.45 0.33 0.24 0.39 0.43 0.34 0.29 0.28 0.27 0.42 0.58 0.34 0.13 0.08 0.05 0.06 0.09 0.08 0.02 0.00 0.00 0.00 0.00 0.00 0.00 0.01 0.01 0.00 0.00 0.01 0.03 0.03 0.01 0.01 0.03 0.03 0.03 0.02 0.00 0.01 0.01 0.00 0.00 0.01 0.01 0.06
0.52 0.45 0.52 0.33 0.26 0.34 0.35 0.33 0.32 0.36 0.58 0.67 0.31 0.09 0.13 0.07 0.10 0.22 0.14 0.04 0.00 0.02 0.07 0.00 0.00 0.00 0.02 0.01 0.02 0.04 0.05 0.04 0.03 0.02 0.02 0.03 0.07 0.19 0.13 0.03 0.20 0.18 0.00 0.00 0.00 0.00 0.00
0.38 0.54 0.50 0.50 0.26 0.23 0.27 0.34 0.31 0.39 0.45 0.19 0.11 0.16 0.33 0.20 0.05 0.07 0.04 0.01 0.01 0.02 0.02 0.01 0.01 0.04 0.01 0.03 0.05 0.03 0.03 0.02 0.02 0.01 0.02 0.05 0.12 0.27 0.16 0.15 0.31 0.04 0.00 0.00 0.00 0.00 0.01
0.32 0.41 0.52 0.46 0.36 0.19 0.20 0.27 0.28 0.28 0.32 0.22 0.15 0.32 0.31 0.15 0.03 0.04 0.02 0.01 0.01 0.02 0.03 0.02 0.02 0.00 0.03 0.15 0.19 0.21 0.14 0.07 0.02 0.01 0.01 0.02 0.10 0.26 0.21 0.20 0.05 0.00 0.00 0.01 0.04 0.03 0.03
0.34 0.36 0.48 0.39 0.38 0.22 0.16 0.20 0.21 0.24 0.26 0.30 0.22 0.27 0.46 0.41 0.07 0.01 0.03 0.02 0.03 0.03 0.05 0.03 0.00 0.01 0.10 0.28 0.20 0.24 0.16 0.08 0.01 0.01 0.01 0.03 0.08 0.22 0.19 0.20 0.10 0.01 0.01 0.01 0.01 0.04 0.02
0.43 0.37 0.38 0.39 0.33 0.26 0.15 0.14 0.16 0.24 0.29 0.32 0.28 0.21 0.39 0.47 0.08 0.03 0.03 0.02 0.03 0.04 0.05 0.02 0.03 0.06 0.09 0.31 0.28 0.09 0.06 0.03 0.07 0.06 0.07 0.14 0.19 0.23 0.17 0.31 0.07 0.00 0.01 0.02 0.07 0.12 0.03
0.51 0.43 0.39 0.29 0.30 0.25 0.17 0.13 0.15 0.22 0.35 0.37 0.29 0.23 0.34 0.34 0.09 0.04 0.02 0.02 0.03 0.05 0.06 0.09 0.21 0.13 0.10 0.18 0.17 0.11 0.05 0.05 0.04 0.06 0.10 0.11 0.25 0.20 0.25 0.32 0.13 0.01 0.04 0.09 0.11 0.09 0.01
0.51 0.43 0.43 0.29 0.27 0.24 0.19 0.15 0.17 0.23 0.33 0.44 0.43 0.27 0.42 0.62 0.18 0.01 0.02 0.01 0.01 0.03 0.11 0.17 0.15 0.13 0.09 0.06 0.07 0.12 0.13 0.13 0.13 0.11 0.09 0.12 0.07 0.09 0.09 0.13 0.11 0.08 0.05 0.03 0.02 0.01 0.00

GFSGBSN_prec_precacc24_171.txt.gz
Total_Precipitation_Accumulation
0.25 0.11 0.04 0.04 0.03 0.05 0.08 0.09 0.06 0.04 0.02 0.01 0.01 0.01 0.00 0.00 0.00 0.00 0.00 0.00 0.00 0.00 0.00 0.00 0.00 0.00 0.00 0.00 0.00 0.00 0.00 0.00 0.00 0.00 0.00 0.00 0.00 0.00 0.00 0.00 0.00 0.00 0.00 0.00 0.00 0.00 0.00
1.26 1.04 0.60 0.31 0.16 0.10 0.07 0.06 0.07 0.08 0.08 0.07 0.05 0.03 0.02 0.01 0.00 0.00 0.00 0.00 0.00 0.00 0.00 0.00 0.00 0.00 0.00 0.00 0.00 0.00 0.00 0.00 0.00 0.00 0.00 0.00 0.00 0.00 0.00 0.00 0.00 0.00 0.00 0.00 0.00 0.00 0.00
0.36 0.59 0.88 0.91 0.72 0.57 0.41 0.21 0.12 0.11 0.09 0.09 0.06 0.04 0.03 0.04 0.03 0.02 0.01 0.00 0.00 0.00 0.00 0.00 0.00 0.00 0.00 0.00 0.00 0.00 0.00 0.00 0.00 0.00 0.00 0.00 0.00 0.00 0.00 0.00 0.00 0.00 0.00 0.00 0.00 0.00 0.00
0.21 0.27 0.29 0.36 0.63 0.76 0.77 0.68 0.54 0.37 0.26 0.28 0.30 0.28 0.24 0.19 0.10 0.04 0.02 0.00 0.00 0.00 0.00 0.00 0.00 0.00 0.00 0.00 0.00 0.00 0.00 0.00 0.00 0.00 0.00 0.00 0.00 0.00 0.00 0.00 0.00 0.00 0.00 0.00 0.00 0.00 0.00
0.19 0.28 0.35 0.38 0.45 0.50 0.50 0.47 0.42 0.36 0.35 0.31 0.23 0.17 0.14 0.08 0.03 0.03 0.03 0.01 0.00 0.00 0.00 0.00 0.00 0.00 0.00 0.00 0.00 0.00 0.00 0.00 0.00 0.00 0.00 0.00 0.00 0.00 0.00 0.00 0.00 0.00 0.00 0.00 0.00 0.00 0.00
0.06 0.08 0.13 0.18 0.20 0.16 0.11 0.07 0.05 0.07 0.08 0.09 0.10 0.06 0.03 0.01 0.01 0.02 0.01 0.01 0.00 0.00 0.00 0.00 0.00 0.00 0.00 0.00 0.00 0.00 0.00 0.00 0.00 0.00 0.00 0.00 0.00 0.00 0.00 0.00 0.00 0.00 0.00 0.00 0.00 0.00 0.00
0.01 0.01 0.02 0.02 0.03 0.03 0.03 0.04 0.04 0.04 0.03 0.02 0.02 0.01 0.00 0.00 0.01 0.01 0.01 0.00 0.00 0.00 0.00 0.00 0.00 0.00 0.00 0.00 0.00 0.00 0.00 0.00 0.00 0.00 0.00 0.00 0.00 0.00 0.00 0.00 0.00 0.00 0.00 0.00 0.00 0.00 0.00
0.06 0.03 0.02 0.01 0.01 0.01 0.01 0.02 0.02 0.02 0.02 0.02 0.01 0.01 0.01 0.01 0.01 0.00 0.00 0.00 0.00 0.00 0.00 0.00 0.00 0.00 0.00 0.00 0.00 0.00 0.00 0.00 0.00 0.00 0.00 0.00 0.00 0.00 0.00 0.00 0.00 0.00 0.00 0.00 0.00 0.00 0.00
0.05 0.06 0.06 0.04 0.03 0.01 0.01 0.02 0.03 0.02 0.02 0.02 0.02 0.01 0.00 0.00 0.00 0.00 0.00 0.00 0.00 0.00 0.00 0.00 0.00 0.00 0.00 0.00 0.00 0.00 0.00 0.00 0.00 0.00 0.00 0.00 0.00 0.00 0.00 0.00 0.00 0.00 0.00 0.00 0.00 0.00 0.00
0.02 0.02 0.02 0.03 0.04 0.04 0.03 0.02 0.02 0.01 0.01 0.01 0.01 0.00 0.00 0.00 0.00 0.00 0.00 0.00 0.00 0.00 0.00 0.00 0.00 0.00 0.00 0.00 0.00 0.00 0.00 0.00 0.00 0.00 0.00 0.00 0.00 0.00 0.00 0.00 0.00 0.00 0.00 0.00 0.00 0.00 0.00
0.01 0.01 0.01 0.02 0.02 0.02 0.02 0.02 0.02 0.02 0.01 0.02 0.01 0.00 0.00 0.00 0.00 0.00 0.00 0.00 0.00 0.00 0.00 0.00 0.00 0.00 0.00 0.00 0.00 0.00 0.00 0.00 0.00 0.00 0.00 0.00 0.00 0.00 0.00 0.00 0.00 0.00 0.00 0.00 0.00 0.00 0.00
0.03 0.01 0.01 0.01 0.01 0.01 0.01 0.00 0.01 0.01 0.01 0.02 0.02 0.01 0.00 0.00 0.00 0.00 0.00 0.00 0.00 0.00 0.00 0.00 0.00 0.00 0.00 0.00 0.00 0.00 0.00 0.00 0.00 0.00 0.00 0.00 0.00 0.00 0.00 0.00 0.00 0.00 0.00 0.00 0.00 0.00 0.00
0.08 0.04 0.02 0.02 0.01 0.01 0.01 0.00 0.00 0.00 0.00 0.01 0.03 0.02 0.00 0.00 0.00 0.00 0.00 0.00 0.02 0.00 0.00 0.00 0.00 0.00 0.00 0.00 0.00 0.00 0.00 0.00 0.00 0.00 0.00 0.00 0.00 0.00 0.00 0.00 0.00 0.00 0.00 0.00 0.00 0.00 0.00
0.19 0.14 0.08 0.04 0.02 0.01 0.00 0.00 0.00 0.00 0.00 0.01 0.04 0.05 0.02 0.00 0.00 0.00 0.00 0.01 0.01 0.00 0.00 0.00 0.00 0.00 0.00 0.00 0.00 0.00 0.00 0.00 0.00 0.00 0.00 0.00 0.00 0.00 0.00 0.00 0.00 0.00 0.00 0.00 0.00 0.00 0.00
0.30 0.24 0.19 0.14 0.08 0.05 0.02 0.00 0.00 0.01 0.00 0.02 0.05 0.07 0.05 0.01 0.00 0.00 0.00 0.00 0.01 0.00 0.00 0.00 0.00 0.00 0.00 0.00 0.00 0.00 0.00 0.00 0.00 0.00 0.00 0.00 0.00 0.00 0.00 0.00 0.00 0.00 0.00 0.00 0.00 0.00 0.00
0.31 0.36 0.36 0.29 0.18 0.11 0.10 0.08 0.02 0.01 0.00 0.03 0.05 0.06 0.02 0.02 0.00 0.01 0.01 0.00 0.00 0.00 0.00 0.00 0.00 0.00 0.00 0.00 0.00 0.00 0.00 0.00 0.00 0.00 0.00 0.00 0.00 0.00 0.00 0.00 0.00 0.00 0.00 0.00 0.01 0.04 0.02
0.17 0.28 0.40 0.45 0.37 0.27 0.17 0.14 0.15 0.07 0.07 0.07 0.06 0.04 0.02 0.02 0.06 0.05 0.01 0.00 0.00 0.00 0.00 0.00 0.00 0.00 0.00 0.00 0.00 0.00 0.00 0.00 0.00 0.00 0.00 0.00 0.00 0.00 0.00 0.00 0.00 0.00 0.00 0.00 0.00 0.02 0.03
0.12 0.19 0.31 0.45 0.42 0.33 0.27 0.23 0.22 0.22 0.21 0.38 0.15 0.03 0.06 0.06 0.08 0.03 0.00 0.00 0.00 0.00 0.00 0.00 0.00 0.00 0.00 0.00 0.00 0.00 0.00 0.00 0.00 0.00 0.00 0.00 0.01 0.00 0.00 0.00 0.00 0.00 0.00 0.00 0.05 0.06 0.05
0.14 0.16 0.29 0.41 0.39 0.27 0.22 0.21 0.26 0.33 0.36 0.32 0.29 0.08 0.18 0.18 0.02 0.00 0.00 0.00 0.00 0.00 0.00 0.00 0.00 0.00 0.00 0.00 0.00 0.00 0.00 0.00 0.00 0.00 0.00 0.00 0.03 0.02 0.00 0.00 0.00 0.00 0.00 0.00 0.00 0.04 0.08
0.27 0.17 0.25 0.40 0.45 0.30 0.22 0.18 0.20 0.28 0.52 0.48 0.40 0.29 0.30 0.49 0.06 0.00 0.00 0.00 0.00 0.00 0.00 0.00 0.00 0.00 0.00 0.00 0.00 0.00 0.00 0.00 0.00 0.00 0.01 0.02 0.01 0.01 0.00 0.00 0.02 0.01 0.00 0.01 0.04 0.24 0.18
0.38 0.29 0.22 0.32 0.46 0.41 0.29 0.24 0.20 0.20 0.38 0.47 0.48 0.33 0.12 0.27 0.31 0.05 0.00 0.00 0.00 0.00 0.00 0.00 0.00 0.00 0.00 0.00 0.00 0.00 0.00 0.00 0.00 0.00 0.00 0.01 0.02 0.00 0.00 0.00 0.01 0.00 0.00 0.01 0.06 0.06 0.16
0.43 0.45 0.32 0.23 0.39 0.43 0.32 0.28 0.27 0.27 0.44 0.60 0.29 0.09 0.05 0.02 0.01 0.08 0.15 0.05 0.00 0.00 0.00 0.00 0.00 0.00 0.00 0.01 0.00 0.00 0.00 0.03 0.03 0.01 0.01 0.03 0.03 0.02 0.01 0.00 0.01 0.01 0.00 0.00 0.01 0.01 0.06
0.51 0.45 0.52 0.33 0.26 0.34 0.34 0.32 0.32 0.36 0.59 0.70 0.30 0.06 0.10 0.04 0.02 0.05 0.04 0.02 0.00 0.02 0.06 0.00 0.00 0.00 0.02 0.00 0.00 0.02 0.03 0.03 0.03 0.01 0.01 0.03 0.05 0.15 0.10 0.03 0.19 0.18 0.00 0.00 0.00 0.00 0.00
0.37 0.52 0.49 0.50 0.26 0.23 0.26 0.33 0.30 0.39 0.45 0.18 0.10 0.14 0.33 0.23 0.06 0.02 0.00 0.00 0.00 0.01 0.02 0.02 0.02 0.04 0.01 0.01 0.03 0.02 0.03 0.02 0.02 0.01 0.01 0.02 0.08 0.25 0.15 0.15 0.30 0.04 0.00 0.00 0.00 0.00 0.01
0.31 0.40 0.52 0.46 0.36 0.19 0.20 0.27 0.28 0.28 0.32 0.23 0.15 0.30 0.33 0.17 0.04 0.02 0.00 0.01 0.01 0.02 0.02 0.02 0.02 0.01 0.04 0.15 0.18 0.12 0.06 0.05 0.01 0.00 0.01 0.02 0.10 0.24 0.19 0.19 0.05 0.00 0.00 0.01 0.04 0.03 0.03
0.32 0.34 0.47 0.39 0.38 0.21 0.16 0.19 0.20 0.22 0.25 0.29 0.26 0.29 0.47 0.47 0.10 0.00 0.01 0.01 0.03 0.03 0.03 0.02 0.00 0.02 0.11 0.28 0.21 0.17 0.10 0.06 0.01 0.02 0.01 0.04 0.08 0.22 0.18 0.18 0.09 0.01 0.01 0.01 0.01 0.04 0.02
0.40 0.35 0.37 0.39 0.33 0.25 0.15 0.13 0.15 0.21 0.26 0.30 0.28 0.27 0.51 0.60 0.13 0.05 0.03 0.02 0.03 0.04 0.05 0.02 0.03 0.07 0.11 0.34 0.28 0.08 0.05 0.03 0.07 0.06 0.07 0.14 0.19 0.22 0.16 0.30 0.07 0.00 0.01 0.02 0.07 0.12 0.03
0.48 0.42 0.38 0.29 0.30 0.25 0.17 0.12 0.15 0.20 0.29 0.34 0.29 0.23 0.44 0.46 0.12 0.06 0.03 0.03 0.03 0.05 0.06 0.09 0.21 0.13 0.10 0.18 0.19 0.12 0.05 0.05 0.04 0.06 0.10 0.11 0.25 0.20 0.26 0.34 0.14 0.01 0.04 0.09 0.11 0.09 0.01
0.47 0.42 0.43 0.29 0.27 0.24 0.20 0.15 0.17 0.21 0.28 0.41 0.42 0.26 0.37 0.78 0.28 0.02 0.01 0.01 0.01 0.03 0.11 0.17 0.16 0.14 0.09 0.06 0.07 0.13 0.12 0.13 0.14 0.12 0.13 0.14 0.09 0.12 0.10 0.13 0.11 0.08 0.05 0.04 0.02 0.01 0.00